This demonstration page uses our WeatherBlox Daily Observations layout. Learn more.

Left ArrowRight Arrow

Hourly Observations for January 29, 2015

Temp ( °F °C ) Dew Point ( °F °C ) Humidity (%) Winds ( mph kmh ) Pressure ( in mb ) Visibility ( mi km ) Precip ( " mm )
12:53 am 00:53 Clear 31 -0.6 26 -3.3 82 82 Calm 30.26 1025 10 16 0.00 0.00
1:53 am 01:53 Clear 32 0 27 -2.8 82 82 Calm 30.28 1026 10 16 0.00 0.00
2:53 am 02:53 Clear 31 -0.6 27 -2.8 85 85 Calm 30.30 1026 10 16 0.00 0.00
3:53 am 03:53 Clear 30 -1.1 26 -3.3 85 85 Calm 30.31 1026 10 16 0.00 0.00
4:53 am 04:53 Clear 30 -1.1 27 -2.8 88 88 Calm 30.28 1026 10 16 0.00 0.00
5:53 am 05:53 Clear 31 -0.6 27 -2.8 85 85 Calm 30.27 1025 10 16 0.00 0.00
6:53 am 06:53 Clear 31 -0.6 27 -2.8 85 85 Calm 30.29 1026 10 16 0.00 0.00
7:53 am 07:53 Sunny 29 -1.7 26 -3.3 89 89 Calm 30.32 1027 10 16 0.00 0.00
8:53 am 08:53 Sunny 35 1.7 30 -1.1 82 82 Calm 30.31 1027 10 16 0.00 0.00
9:53 am 09:53 Sunny 41 5 32 0 70 70 NNW 3 6 30.32 1027 10 16 0.00 0.00
10:53 am 10:53 Sunny 48 8.9 31 -0.6 52 52 SSW 8 13 30.30 1026 10 16 0.00 0.00
11:53 am 11:53 Sunny 50 10 29 -1.7 44 44 SW 13 20 30.26 1025 10 16 0.00 0.00
12:53 pm 12:53 Sunny 53 11.7 29 -1.7 40 40 SSW 9 15 30.22 1024 10 16 0.00 0.00
1:53 pm 13:53 Sunny 56 13.3 28 -2.2 34 34 SSW 10 17 30.17 1022 10 16 0.00 0.00
2:53 pm 14:53 Partly Cloudy 57 13.9 27 -2.8 32 32 SSW 7 11 30.14 1021 10 16 0.00 0.00
3:53 pm 15:53 Mostly Cloudy 59 15 26 -3.3 28 28 SSW 8 13 30.12 1020 10 16 0.00 0.00
4:53 pm 16:53 Mostly Cloudy 58 14.4 27 -2.8 31 31 SSW 7 11 30.11 1020 10 16 0.00 0.00
5:53 pm 17:53 Mostly Cloudy 57 13.9 29 -1.7 34 34 SSW 5 7 30.12 1020 10 16 0.00 0.00
6:53 pm 18:53 Mostly Cloudy 53 11.7 31 -0.6 43 43 Calm 30.13 1020 10 16 0.00 0.00
7:53 pm 19:53 Cloudy 51 10.6 32 0 48 48 Calm 30.14 1021 10 16 0.00 0.00
8:53 pm 20:53 Cloudy 50 10 34 1.1 54 54 Calm 30.13 1020 10 16 0.00 0.00
9:53 pm 21:53 Cloudy 51 10.6 35 1.7 54 54 S 6 9 30.12 1020 10 16 0.00 0.00
10:53 pm 22:53 Cloudy 52 11.1 35 1.7 53 53 SW 3 6 30.09 1019 10 16 0.00 0.00
11:53 pm 23:53 Cloudy 53 11.7 34 1.1 48 48 SW 5 7 30.08 1019 10 16 0.00 0.00

Powered by AerisWeather